User: anonymous   Login
Location: ???? ?????
(30.0052°N, 31.2891°E)
Time: 19:59:44
(UTC+00:00)
Language:

MOS 1 Rocket - Orbit

View from above orbital plane
View from above orbital plane
View from above satellite
View from above satellite

Ground track
Ground track

The orbit data is extracted from the following two-line orbital elements,

1 17528U 87018B   22229.37770524  .00000597  00000-0  13804-3 0  9999
2 17528  97.4651 357.3749 0152009 141.1729 220.0507 14.51351237852921
Epoch (UTC): 17 August 2022 09:03:53
Eccentricity: 0.0152009
inclination: 97.4651°
perigee height: 613 km
apogee height: 829 km
right ascension of ascending node: 357.3749°
argument of perigee: 141.1729°
revolutions per day: 14.51351237
mean anomaly at epoch: 220.0507°
orbit number at epoch: 85292

The dashed part of the orbit path shows where the satellite is in the earth's shadow,  

DLR